Total_Precipitation_Accumulation
0.07 0.19 0.35 0.71 1.39 1.48 1.04 0.66 0.54 0.44 0.42 0.38 0.39 0.37 0.45 0.67 1.01 1.42 0.78 0.40 0.34 0.36 0.51 0.75 1.01 0.97 0.94 0.87 0.87 0.86 0.81 0.78 0.77 0.79 0.84 0.80 0.73 0.63 0.57 0.57 0.60 0.66 0.66 0.62 0.71 0.77 0.73 0.77 0.87
0.16 0.26 0.43 0.92 1.32 1.08 0.82 0.62 0.52 0.36 0.35 0.38 0.50 0.51 0.42 0.52 0.52 0.53 0.54 0.46 0.32 0.30 0.41 0.56 0.84 0.86 0.87 0.84 0.84 0.83 0.77 0.68 0.68 0.69 0.69 0.66 0.67 0.61 0.56 0.57 0.60 0.63 0.61 0.63 0.74 0.78 0.78 0.76 0.80
0.23 0.35 0.55 0.91 0.88 0.61 0.53 0.43 0.37 0.34 0.40 0.49 0.56 0.59 0.60 0.60 0.48 0.51 0.50 0.41 0.37 0.32 0.37 0.56 0.72 0.72 0.76 0.74 0.73 0.77 0.75 0.69 0.64 0.61 0.65 0.64 0.61 0.59 0.57 0.60 0.61 0.65 0.65 0.64 0.68 0.79 0.84 0.82 0.80
0.25 0.39 0.53 0.63 0.50 0.30 0.23 0.25 0.28 0.39 0.57 0.78 0.79 0.77 0.71 0.54 0.44 0.43 0.48 0.42 0.37 0.30 0.28 0.44 0.60 0.61 0.71 0.68 0.64 0.67 0.67 0.67 0.64 0.62 0.65 0.70 0.72 0.72 0.64 0.58 0.62 0.68 0.72 0.72 0.74 0.84 0.89 0.82 0.81
0.19 0.37 0.57 0.53 0.31 0.24 0.19 0.20 0.31 0.44 0.61 0.79 0.84 0.91 0.93 0.68 0.46 0.45 0.44 0.47 0.41 0.31 0.26 0.35 0.54 0.53 0.60 0.62 0.60 0.61 0.62 0.65 0.61 0.62 0.62 0.69 0.75 0.73 0.68 0.66 0.68 0.69 0.73 0.74 0.79 0.84 0.87 0.89 0.91
0.25 0.38 0.44 0.37 0.22 0.19 0.21 0.24 0.31 0.44 0.61 0.78 1.05 1.15 1.11 0.90 0.75 0.64 0.53 0.64 0.53 0.39 0.29 0.35 0.55 0.63 0.62 0.61 0.60 0.60 0.60 0.60 0.59 0.59 0.60 0.64 0.70 0.72 0.73 0.75 0.77 0.71 0.75 0.79 0.79 0.81 0.80 0.86 0.97
0.21 0.25 0.27 0.24 0.19 0.17 0.20 0.24 0.31 0.48 0.63 0.87 1.15 1.30 1.19 1.06 0.90 0.77 0.73 0.79 0.83 0.69 0.56 0.48 0.53 0.61 0.63 0.69 0.70 0.64 0.63 0.62 0.60 0.62 0.64 0.63 0.65 0.68 0.69 0.81 0.84 0.79 0.80 0.83 0.86 0.84 0.85 0.90 1.02
0.10 0.15 0.17 0.14 0.14 0.14 0.18 0.22 0.34 0.56 0.74 0.95 1.14 1.29 1.39 1.08 0.90 0.99 1.18 1.33 1.42 1.29 1.09 0.82 0.63 0.69 0.66 0.72 0.74 0.71 0.59 0.58 0.62 0.67 0.67 0.70 0.77 0.83 0.92 0.91 0.88 0.91 0.99 1.03 1.06 1.02 0.97 1.08 1.18
0.07 0.10 0.11 0.07 0.07 0.14 0.16 0.21 0.30 0.41 0.61 0.85 1.03 1.09 1.01 0.96 1.12 1.40 1.76 1.79 1.62 1.64 1.46 1.31 1.06 0.81 0.87 0.85 0.76 0.86 0.77 0.76 0.87 1.03 1.02 1.09 1.40 1.36 1.46 1.20 1.12 1.22 1.41 1.46 1.50 1.49 1.41 1.36 1.32
0.04 0.06 0.04 0.02 0.02 0.06 0.12 0.18 0.29 0.44 0.85 1.43 1.42 1.09 0.88 1.06 1.32 1.56 1.87 2.08 1.68 1.66 1.48 1.47 1.40 1.11 1.02 0.98 1.21 1.52 1.34 1.34 1.40 1.63 1.52 1.81 1.93 1.81 1.35 1.42 1.58 1.71 2.06 2.18 2.20 2.24 2.03 1.75 1.62
0.02 0.02 0.02 0.01 0.02 0.02 0.05 0.13 0.23 0.47 0.95 1.64 1.80 1.35 1.17 1.27 1.65 1.68 1.92 2.13 2.04 1.86 1.73 1.45 1.57 1.43 1.39 1.54 1.62 1.77 1.85 1.84 1.80 1.89 1.93 2.17 1.99 1.71 1.62 1.93 2.28 2.46 2.63 2.79 2.83 2.75 2.30 2.26 2.42
0.01 0.01 0.01 0.01 0.01 0.02 0.09 0.18 0.28 0.36 0.79 1.14 1.12 1.01 1.17 1.39 1.73 1.95 2.02 2.25 2.29 2.15 2.03 1.90 1.88 1.88 1.86 1.90 1.82 1.71 1.55 1.57 1.69 1.85 1.88 2.09 2.19 2.21 2.19 2.34 2.46 2.67 3.01 3.37 3.30 3.25 3.02 3.04 2.87
0.01 0.01 0.01 0.02 0.03 0.05 0.11 0.15 0.27 0.42 0.54 0.67 0.64 0.83 1.27 1.55 1.94 2.28 2.64 2.86 2.91 2.84 2.68 2.67 2.73 2.52 2.29 2.22 1.89 1.55 1.45 1.36 1.43 1.55 1.65 1.71 2.03 2.29 2.34 2.20 2.22 2.22 2.44 2.85 3.36 3.31 3.48 3.47 3.15
0.01 0.01 0.02 0.04 0.04 0.05 0.10 0.15 0.30 0.51 0.52 0.62 0.78 1.02 1.42 1.87 2.25 2.50 3.25 3.65 3.89 3.82 3.64 3.44 3.48 3.02 2.65 2.40 2.02 1.76 1.51 1.51 1.43 1.35 1.38 1.59 1.82 2.10 2.07 2.04 2.22 2.28 2.22 2.38 2.80 2.99 3.33 3.33 2.99
0.03 0.06 0.07 0.08 0.05 0.06 0.12 0.29 0.45 0.57 0.75 0.79 0.97 1.19 1.53 2.12 2.59 3.04 3.58 4.32 4.76 4.92 4.53 3.94 3.66 3.32 3.02 2.74 2.25 1.87 1.69 1.44 1.43 1.43 1.36 1.43 1.56 1.79 1.79 1.87 1.87 1.95 1.90 1.98 2.16 2.42 2.71 2.69 2.55
0.07 0.14 0.22 0.13 0.08 0.09 0.14 0.53 0.71 0.60 0.88 1.21 1.17 1.44 1.84 2.37 2.84 3.51 4.20 5.03 5.56 5.72 5.13 4.40 3.70 3.71 3.53 3.21 2.55 2.06 1.77 1.62 1.53 1.46 1.34 1.26 1.29 1.29 1.40 1.44 1.42 1.44 1.33 1.47 1.77 1.87 2.11 2.35 2.44
0.06 0.12 0.18 0.19 0.13 0.11 0.20 0.61 0.79 0.59 0.75 1.04 1.29 1.54 1.96 2.33 2.68 3.32 3.97 4.77 5.37 5.89 5.69 5.05 4.85 4.60 3.93 3.18 2.57 2.15 1.85 1.71 1.53 1.44 1.35 1.29 1.21 1.16 1.23 1.31 1.40 1.17 1.14 1.21 1.15 1.51 1.72 1.97 2.10
0.06 0.08 0.12 0.24 0.18 0.18 0.27 0.47 0.75 0.78 0.96 1.16 1.31 1.45 1.73 1.93 2.27 2.78 3.30 3.74 4.33 4.83 4.73 4.67 4.77 4.30 3.68 3.04 2.53 2.22 1.95 1.66 1.47 1.37 1.39 1.31 1.25 1.22 1.33 1.18 1.20 1.07 1.21 1.36 1.46 1.70 1.64 1.60 1.70
0.05 0.06 0.10 0.17 0.18 0.24 0.37 0.50 0.72 0.88 1.11 1.26 1.29 1.26 1.33 1.55 1.86 2.16 2.54 2.89 3.09 3.25 3.36 3.67 3.89 3.60 3.10 2.67 2.17 1.95 1.86 1.68 1.49 1.36 1.26 1.31 1.25 1.37 1.46 1.21 1.45 1.30 1.26 1.34 1.38 1.50 1.50 1.36 1.33
0.05 0.07 0.13 0.16 0.16 0.21 0.36 0.65 0.82 0.90 0.93 1.00 1.11 1.06 1.09 1.29 1.39 1.48 1.70 2.03 2.12 2.34 2.65 3.03 3.27 3.11 2.58 2.33 2.11 1.96 1.87 1.74 1.68 1.54 1.46 1.31 1.28 1.33 1.24 1.45 1.29 1.32 1.41 1.45 1.51 1.60 1.59 1.42 1.35
0.06 0.07 0.09 0.12 0.13 0.22 0.38 0.90 1.01 0.90 0.81 0.71 0.82 0.87 0.84 0.92 1.02 1.02 1.10 1.27 1.58 2.05 2.21 2.26 2.52 2.72 2.46 2.32 2.23 2.12 2.01 1.82 1.85 1.75 1.59 1.29 1.19 1.23 1.26 1.27 1.28 1.46 1.28 1.50 1.68 1.62 1.67 1.64 1.49
0.05 0.06 0.05 0.05 0.09 0.33 0.46 0.91 1.03 0.91 0.89 0.71 0.67 0.66 0.56 0.54 0.70 0.84 0.85 0.91 1.11 1.43 1.72 1.98 2.22 2.40 2.34 2.21 2.00 1.84 1.65 1.54 1.54 1.56 1.57 1.45 1.33 1.17 1.17 1.18 1.33 1.48 1.29 1.59 1.33 1.36 1.59 1.70 1.54
0.02 0.02 0.04 0.06 0.12 0.31 0.44 0.78 1.00 0.83 0.97 0.73 0.46 0.33 0.29 0.29 0.40 0.57 0.68 0.77 0.79 0.99 1.38 1.81 2.16 2.40 2.29 2.00 1.83 1.82 1.71 1.66 1.59 1.52 1.69 1.56 1.48 1.28 1.12 1.19 1.31 1.37 1.29 1.37 1.40 1.64 1.56 1.51 1.49
0.01 0.03 0.09 0.19 0.32 0.64 0.63 0.65 0.93 0.71 0.54 0.39 0.28 0.20 0.21 0.23 0.27 0.36 0.43 0.53 0.67 0.81 1.06 1.38 1.72 1.97 1.99 1.84 1.75 1.80 1.82 1.78 1.64 1.45 1.44 1.35 1.36 1.31 1.23 1.30 1.35 1.30 1.24 1.29 1.32 1.45 1.48 1.55 1.61
0.02 0.04 0.18 0.40 0.67 0.86 0.51 0.66 1.02 0.59 0.41 0.26 0.21 0.19 0.19 0.17 0.22 0.32 0.40 0.43 0.53 0.62 0.79 1.03 1.29 1.44 1.60 1.68 1.71 1.69 1.80 1.80 1.61 1.43 1.37 1.38 1.24 1.16 1.19 1.29 1.43 1.37 1.36 1.34 1.43 1.42 1.37 1.46 1.51
0.02 0.03 0.07 0.15 0.28 0.44 0.50 1.12 0.98 0.42 0.27 0.23 0.20 0.20 0.18 0.18 0.20 0.30 0.41 0.43 0.44 0.48 0.64 0.79 0.97 1.17 1.37 1.49 1.55 1.57 1.52 1.42 1.41 1.48 1.39 1.34 1.31 1.25 1.20 1.27 1.28 1.31 1.34 1.34 1.60 1.40 1.29 1.33 1.32
0.03 0.02 0.03 0.05 0.08 0.27 0.61 0.80 0.52 0.25 0.22 0.24 0.22 0.21 0.20 0.24 0.31 0.36 0.46 0.48 0.38 0.39 0.49 0.56 0.75 0.93 1.07 1.28 1.38 1.30 1.32 1.23 1.24 1.29 1.28 1.24 1.34 1.35 1.29 1.20 1.18 1.24 1.34 1.43 1.52 1.42 1.41 1.45 1.30
0.03 0.02 0.03 0.03 0.06 0.19 0.45 0.70 0.72 0.44 0.33 0.28 0.25 0.24 0.21 0.27 0.41 0.45 0.42 0.44 0.37 0.36 0.43 0.51 0.66 0.77 0.87 1.04 1.12 1.04 1.23 1.23 1.31 1.27 1.19 1.14 1.14 1.17 1.22 1.20 1.14 1.19 1.27 1.38 1.48 1.51 1.61 1.69 1.54
0.04 0.03 0.03 0.03 0.04 0.10 0.30 0.48 0.51 0.46 0.40 0.29 0.23 0.26 0.32 0.31 0.43 0.44 0.40 0.42 0.39 0.38 0.42 0.48 0.63 0.73 0.79 0.92 0.96 1.02 1.09 1.12 1.17 1.19 1.20 1.18 1.15 1.13 1.17 1.21 1.23 1.25 1.29 1.39 1.45 1.41 1.62 1.76 1.79
0.05 0.06 0.06 0.05 0.05 0.06 0.12 0.24 0.26 0.31 0.38 0.31 0.30 0.37 0.39 0.28 0.29 0.35 0.40 0.46 0.35 0.36 0.40 0.45 0.53 0.59 0.65 0.81 0.95 0.99 1.09 1.10 1.08 1.12 1.29 1.31 1.28 1.27 1.29 1.32 1.40 1.37 1.35 1.42 1.42 1.34 1.41 1.60 1.80